Hagerstown, MD

9:18 PM EST on November 17, 2019 (GMT -0500)
Hagerstown Regional-Henson

Weather History for KHGR - September, 2019

Change the Weather History Date:

Tuesday, September 3, 2019

  Actual Average Record
Temperature  
Mean Temperature 74 °F 70 °F  
Max Temperature 84 °F 80 °F 97 °F (2010)
Min Temperature 63 °F 61 °F 53 °F (2001)
Degree Days  
Heating Degree Days 0 0  
Month to date heating degree days 0 0  
Since 1 July heating degree days 0 5  
Cooling Degree Days 9 6  
Month to date cooling degree days 28 18  
Year to date cooling degree days 1237 886  
Growing Degree Days 24 (Base 50)    
Moisture  
Dew Point 60 °F    
Average Humidity 62    
Maximum Humidity 87    
Minimum Humidity 37    
Precipitation  
Precipitation 0.00 in 0.09 in 0.59 in (2003)
Month to date precipitation 0.05 0.28  
Year to date precipitation 28.42 26.91  
Sea Level Pressure  
Sea Level Pressure 30.05 in    
Wind  
Wind Speed 5 mph (South)    
Max Wind Speed 14 mph    
Max Gust Speed 17 mph    
Visibility 10 miles    
Events      
T = Trace of Precipitation, MM = Missing Value Source: NWS Daily Summary

Daily Weather History Graph

Daily Weather History Graph

Search for Another Location

Airport or City:

Astronomy

Sep. 03, 2019 Rise Set
Actual Time 6:40 AM EDT 7:39 PM EDT
Civil Twilight 6:13 AM EDT 8:06 PM EDT
Nautical Twilight 5:40 AM EDT 8:39 PM EDT
Astronomical Twilight 5:06 AM EDT 9:13 PM EDT
Moon 11:30 AM EDT (9/3) 10:35 PM EDT (9/3)
Length of Visible Light 13h 53m
Length of Day
12h 58m
Waxing Crescent, 24% of the Moon is Illuminated
Sep 3
Waxing Crescent
Sep 5
First Quarter
Sep 14
Full
Sep 21
Last Quarter
Sep 28
New

Hourly Weather History & Observations

Time (EDT) Temp. Heat Index Dew Point Humidity Pressure Visibility Wind Dir Wind Speed Gust Speed Precip Events Conditions
12:53 AM 70.0 °F - 64.9 °F 84% 30.06 in 10.0 mi NW 4.6 mph - N/A   Clear
1:53 AM 68.0 °F - 64.0 °F 87% 30.06 in 10.0 mi NNW 3.5 mph - N/A   Clear
2:53 AM 68.0 °F - 63.0 °F 84% 30.05 in 10.0 mi North 4.6 mph - N/A   Clear
3:53 AM 66.9 °F - 62.1 °F 84% 30.05 in 10.0 mi North 3.5 mph - N/A   Clear
4:53 AM 66.9 °F - 62.1 °F 84% 30.06 in 10.0 mi Calm Calm - N/A   Clear
5:53 AM 64.0 °F - 61.0 °F 90% 30.07 in 9.0 mi Calm Calm - N/A   Clear
6:53 AM 64.0 °F - 60.1 °F 87% 30.10 in 8.0 mi Calm Calm - N/A   Clear
7:53 AM 64.9 °F - 61.0 °F 87% 30.12 in 7.0 mi ESE 3.5 mph - N/A   Clear
8:53 AM 71.1 °F - 63.0 °F 75% 30.11 in 10.0 mi NNW 4.6 mph - N/A   Clear
9:53 AM 75.0 °F - 60.1 °F 60% 30.11 in 10.0 mi Calm Calm - N/A   Clear
10:53 AM 75.9 °F - 60.1 °F 58% 30.10 in 10.0 mi Variable 3.5 mph - N/A   Clear
11:53 AM 77.0 °F - 60.1 °F 56% 30.09 in 10.0 mi Variable 4.6 mph - N/A   Clear
12:53 PM 80.1 °F 80.7 °F 59.0 °F 48% 30.08 in 10.0 mi Calm Calm - N/A   Clear
1:53 PM 80.1 °F 80.7 °F 59.0 °F 48% 30.07 in 10.0 mi SE 3.5 mph - N/A   Scattered Clouds
2:53 PM 82.9 °F 82.6 °F 57.9 °F 42% 30.05 in 10.0 mi Variable 6.9 mph - N/A   Scattered Clouds
3:53 PM 82.9 °F 82.4 °F 57.0 °F 41% 30.04 in 10.0 mi SW 8.1 mph - N/A   Partly Cloudy
4:53 PM 84.0 °F 83.0 °F 55.9 °F 38% 30.02 in 10.0 mi WSW 8.1 mph - N/A   Partly Cloudy
5:53 PM 82.9 °F 82.6 °F 57.9 °F 42% 30.01 in 10.0 mi SSE 4.6 mph - N/A   Clear
6:53 PM 82.0 °F 81.7 °F 57.0 °F 42% 30.00 in 10.0 mi SSE 9.2 mph - N/A   Clear
7:53 PM 79.0 °F - 61.0 °F 54% 30.00 in 10.0 mi SSE 6.9 mph - N/A   Clear
8:53 PM 75.9 °F - 61.0 °F 60% 30.00 in 10.0 mi SE 8.1 mph - N/A   Clear
9:53 PM 73.9 °F - 60.1 °F 62% 30.02 in 10.0 mi South 4.6 mph - N/A   Clear
10:53 PM 73.9 °F - 61.0 °F 64% 30.01 in 10.0 mi SSE 4.6 mph - N/A   Clear
11:53 PM 72.0 °F - 61.0 °F 68% 30.01 in 10.0 mi South 5.8 mph - N/A   Clear